This demonstration page uses our WeatherBlox Daily Observations layout. Learn more.

Hourly Observations for May 25, 2016

Temp ( °F °C ) Dew Point ( °F °C ) Humidity (%) Winds ( mph kmh ) Pressure ( in mb ) Visibility ( mi km ) Precip ( " mm )
12:15 am 00:15 Clear 64 18 55 13 73 73 Calm 30.09 1019 10 16.0934 0 0
12:35 am 00:35 Clear 63 17 55 13 77 77 WSW 3 6 30.09 1019 10 16.0934 0 0
12:55 am 00:55 Clear 63 17 55 13 77 77 Calm 30.09 1019 10 16.0934 0 0
1:15 am 01:15 Clear 63 17 55 13 77 77 WSW 3 6 30.09 1019 10 16.0934 0 0
1:35 am 01:35 Clear 63 17 55 13 77 77 Calm 30.09 1019 10 16.0934 0 0
1:55 am 01:55 Clear 61 16 55 13 83 83 W 3 6 30.09 1019 10 16.0934 0 0
2:15 am 02:15 Clear 63 17 55 13 77 77 Calm 30.09 1019 10 16.0934 0 0
2:35 am 02:35 Clear 63 17 55 13 77 77 WSW 3 6 30.09 1019 10 16.0934 0 0
2:55 am 02:55 Clear 61 16 55 13 83 83 Calm 30.09 1019 10 16.0934 0 0
3:15 am 03:15 Clear 61 16 55 13 83 83 Calm 30.09 1019 10 16.0934 0 0
3:35 am 03:35 Clear 61 16 54 12 77 77 W 3 6 30.12 1020 10 16.0934 0 0
3:55 am 03:55 Clear 61 16 54 12 77 77 W 3 6 30.12 1020 10 16.0934 0 0
4:15 am 04:15 Clear 61 16 54 12 77 77 W 5 7 30.12 1020 10 16.0934 0 0
4:35 am 04:35 Clear 61 16 54 12 77 77 W 3 6 30.12 1020 10 16.0934 0 0
4:55 am 04:55 Clear 59 15 54 12 82 82 W 5 7 30.12 1020 10 16.0934 0 0
5:15 am 05:15 Clear 61 16 54 12 77 77 Calm 30.12 1020 10 16.0934 0 0
5:35 am 05:35 Clear 61 16 54 12 77 77 Calm 30.12 1020 10 16.0934 0 0
5:55 am 05:55 Sunny 59 15 54 12 82 82 S 6 9 30.12 1020 10 16.0934 0 0
6:15 am 06:15 Sunny 59 15 54 12 82 82 Calm 30.15 1021 10 16.0934 0 0
6:35 am 06:35 Sunny 59 15 54 12 82 82 Calm 30.15 1021 10 16.0934 0 0
6:55 am 06:55 Sunny 61 16 55 13 83 83 Calm 30.15 1021 10 16.0934 0 0
7:15 am 07:15 Partly Cloudy 63 17 59 15 88 88 Calm 30.15 1021 10 16.0934 0 0
7:35 am 07:35 Partly Cloudy 66 19 55 13 68 68 Calm 30.15 1021 10 16.0934 0 0
7:55 am 07:55 Sunny 68 20 59 15 73 73 Calm 30.18 1022 10 16.0934 0 0
8:15 am 08:15 Sunny 70 21 59 15 69 69 Calm 30.18 1022 10 16.0934 0 0
8:35 am 08:35 Sunny 72 22 59 15 65 65 Calm 30.18 1022 10 16.0934 0 0
8:55 am 08:55 Sunny 73 23 61 16 65 65 W 3 6 30.18 1022 10 16.0934 0 0
9:15 am 09:15 Sunny 77 25 59 15 54 54 W 5 7 30.18 1022 10 16.0934 0 0
9:35 am 09:35 Sunny 79 26 59 15 51 51 WNW 7 11 30.18 1022 10 16.0934 0 0
9:55 am 09:55 Sunny 79 26 59 15 51 51 W 8 13 30.18 1022 10 16.0934 0 0
10:15 am 10:15 Sunny 81 27 59 15 48 48 WNW 7 11 30.18 1022 10 16.0934 0 0
10:35 am 10:35 Sunny 81 27 59 15 48 48 W 5 7 30.18 1022 10 16.0934 0 0
10:55 am 10:55 Sunny 82 28 59 15 45 45 WNW 9 15 30.18 1022 10 16.0934 0 0
11:15 am 11:15 Sunny 82 28 57 14 42 42 W 8 13 30.18 1022 10 16.0934 0 0
11:35 am 11:35 Sunny 82 28 55 13 40 40 W 8 13 30.15 1021 10 16.0934 0 0
11:55 am 11:55 Sunny 82 28 54 12 37 37 WNW 5 7 30.18 1022 10 16.0934 0 0
12:15 pm 12:15 Sunny 84 29 55 13 37 37 W 9 15 30.18 1022 10 16.0934 0 0
12:35 pm 12:35 Sunny 82 28 54 12 37 37 NW 8 13 30.18 1022 10 16.0934 0 0
12:55 pm 12:55 Sunny 84 29 55 13 37 37 W 9 15 30.18 1022 10 16.0934 0 0
1:15 pm 13:15 Sunny 84 29 54 12 35 35 W 7 11 30.15 1021 10 16.0934 0 0
1:35 pm 13:35 Sunny 84 29 54 12 35 35 W 7 11 30.15 1021 10 16.0934 0.07 1.778
1:55 pm 13:55 Sunny 86 30 55 13 35 35 NW 5 7 30.15 1021 10 16.0934 0.07 1.778
2:15 pm 14:15 Sunny 86 30 55 13 35 35 WSW 10 17 30.15 1021 10 16.0934 0 0
2:35 pm 14:35 Sunny 86 30 54 12 33 33 W 9 15 30.15 1021 10 16.0934 0 0
2:55 pm 14:55 Sunny 86 30 54 12 33 33 W 8 13 30.15 1021 10 16.0934 0 0
3:15 pm 15:15 Sunny 86 30 55 13 35 35 W 9 15 30.15 1021 10 16.0934 0 0
3:35 pm 15:35 Sunny 86 30 54 12 33 33 SW 8 13 30.15 1021 10 16.0934 0 0
3:55 pm 15:55 Sunny 86 30 54 12 33 33 Calm 30.15 1021 10 16.0934 0 0
4:15 pm 16:15 Sunny 88 31 57 14 35 35 W 6 9 30.15 1021 10 16.0934 0 0
4:35 pm 16:35 Sunny 88 31 55 13 33 33 WSW 8 13 30.15 1021 10 16.0934 0 0
4:55 pm 16:55 Sunny 88 31 55 13 33 33 S 8 13 30.12 1020 10 16.0934 0 0
5:15 pm 17:15 Sunny 88 31 55 13 33 33 SW 7 11 30.12 1020 10 16.0934 0 0
5:35 pm 17:35 Sunny 86 30 55 13 35 35 WSW 5 7 30.12 1020 10 16.0934 0 0
5:55 pm 17:55 Sunny 86 30 55 13 35 35 SSW 5 7 30.12 1020 10 16.0934 0 0
6:15 pm 18:15 Sunny 86 30 57 14 38 38 SSW 7 11 30.12 1020 10 16.0934 0 0
6:35 pm 18:35 Sunny 86 30 55 13 35 35 SSW 9 15 30.12 1020 10 16.0934 0 0
6:55 pm 18:55 Sunny 86 30 55 13 35 35 SSW 7 11 30.12 1020 10 16.0934 0 0
7:15 pm 19:15 Sunny 86 30 57 14 38 38 SW 7 11 30.12 1020 10 16.0934 0 0
7:35 pm 19:35 Sunny 82 28 59 15 45 45 S 7 11 30.12 1020 10 16.0934 0 0
7:55 pm 19:55 Sunny 81 27 59 15 48 48 S 5 7 30.12 1020 10 16.0934 0 0
8:15 pm 20:15 Sunny 81 27 59 15 48 48 SSW 12 19 30.12 1020 10 16.0934 0 0
8:35 pm 20:35 Clear 79 26 59 15 51 51 SSW 13 20 30.12 1020 10 16.0934 0 0
8:55 pm 20:55 Clear 75 24 59 15 57 57 SSW 7 11 30.12 1020 10 16.0934 0 0
9:15 pm 21:15 Clear 75 24 59 15 57 57 SSW 12 19 30.12 1020 10 16.0934 0 0
9:35 pm 21:35 Clear 72 22 61 16 69 69 SSW 6 9 30.12 1020 10 16.0934 0 0
9:55 pm 21:55 Clear 70 21 64 18 83 83 SSW 6 9 30.12 1020 10 16.0934 0 0
10:15 pm 22:15 Clear 70 21 63 17 78 78 SSW 3 6 30.12 1020 10 16.0934 0 0
10:35 pm 22:35 Clear 68 20 61 16 78 78 SSW 3 6 30.12 1020 10 16.0934 0 0
10:55 pm 22:55 Clear 68 20 63 17 83 83 SSW 5 7 30.12 1020 10 16.0934 0 0
11:15 pm 23:15 Clear 66 19 61 16 83 83 SSW 3 6 30.12 1020 10 16.0934 0 0
11:35 pm 23:35 Clear 64 18 63 17 94 94 SSW 3 6 30.12 1020 10 16.0934 0 0
11:55 pm 23:55 Clear 66 19 61 16 83 83 S 3 6 30.12 1020 10 16.0934 0 0

Powered by AerisWeather